Weather History for KORH - January, 2013

Change the Weather History Date:

Thursday, January 17, 2013

  Actual Average Record
Temperature  
Mean Temperature 32 °F 24 °F  
Max Temperature 37 °F 31 °F 55 °F (1973)
Min Temperature 26 °F 16 °F -9 °F (1982)
Degree Days  
Heating Degree Days 33 41  
Month to date heating degree days 578 693  
Since 1 July heating degree days 2793 3197  
Cooling Degree Days 0 0  
Month to date cooling degree days 0 0  
Year to date cooling degree days 0 0  
Moisture  
Dew Point 23 °F    
Average Humidity 73    
Maximum Humidity 100    
Minimum Humidity 46    
Precipitation  
Precipitation 0.00 in 0.11 in 1.11 in (1994)
Month to date precipitation 0.58 1.89  
Year to date precipitation 0.58 1.89  
Sea Level Pressure  
Sea Level Pressure 29.95 in    
Wind  
Wind Speed 13 mph (WNW)    
Max Wind Speed 22 mph    
Max Gust Speed 30 mph    
Visibility 10 miles    
Events      
T = Trace of Precipitation, MM = Missing Value Source: NWS Daily Summary

Daily Weather History Graph

Daily Weather History Graph

Search for Another Location

Airport or City:

Trip Planner

Search our weather history database for the weather conditions in past years. The results will help you decide how hot, cold, wet, or windy it might be!

Date:

Astronomy

Jan. 17, 2013 Rise Set
Actual Time 7:12 AM EST 4:43 PM EST
Civil Twilight 6:41 AM EST 5:13 PM EST
Nautical Twilight 6:07 AM EST 5:48 PM EST
Astronomical Twilight 5:33 AM EST 6:21 PM EST
Moon 10:09 AM EST (1/17) 11:40 PM EST (1/17)
Length of Visible Light 10h 32m
Length of Day
9h 30m
Waxing Crescent, 37% of the Moon is Illuminated
Jan 17
Waxing Crescent
Jan 18
First Quarter
Jan 26
Full
Feb 3
Last Quarter
Feb 10
New

Hourly Weather History & Observations

Time (EST) Temp. Windchill Dew Point Humidity Pressure Visibility Wind Dir Wind Speed Gust Speed Precip Events Conditions
12:54 AM 30.9 °F 21.2 °F 30.0 °F 96% 29.84 in 10.0 mi West 12.7 mph - N/A   Overcast
1:38 AM 30.9 °F 22.2 °F 28.9 °F 92% 29.81 in 10.0 mi West 10.4 mph - N/A   Mostly Cloudy
1:54 AM 30.9 °F 22.2 °F 28.9 °F 92% 29.85 in 10.0 mi WSW 10.4 mph - N/A   Mostly Cloudy
2:21 AM 30.9 °F 21.7 °F 28.9 °F 92% 29.82 in 10.0 mi West 11.5 mph - N/A   Overcast
2:54 AM 30.0 °F 20.5 °F 28.9 °F 96% 29.85 in 10.0 mi West 11.5 mph 20.7 mph N/A   Scattered Clouds
3:54 AM 30.0 °F 18.7 °F 28.0 °F 92% 29.84 in 10.0 mi West 16.1 mph 24.2 mph N/A   Partly Cloudy
4:54 AM 30.0 °F 19.5 °F 27.0 °F 88% 29.83 in 10.0 mi West 13.8 mph - N/A   Clear
5:54 AM 30.0 °F 18.7 °F 25.0 °F 82% 29.86 in 10.0 mi West 16.1 mph 24.2 mph N/A   Clear
6:54 AM 28.9 °F 17.3 °F 25.0 °F 85% 29.88 in 10.0 mi West 16.1 mph - N/A   Clear
7:54 AM 30.0 °F 18.7 °F 25.0 °F 82% 29.92 in 10.0 mi West 16.1 mph 25.3 mph N/A   Clear
8:54 AM 30.9 °F 19.8 °F 25.0 °F 79% 29.94 in 10.0 mi West 16.1 mph - N/A   Clear
9:54 AM 32.0 °F 22.5 °F 27.0 °F 82% 29.96 in 10.0 mi West 12.7 mph - N/A   Clear
10:54 AM 34.0 °F 23.8 °F 28.0 °F 79% 29.96 in 10.0 mi West 16.1 mph 23.0 mph N/A   Clear
11:54 AM 35.1 °F 24.8 °F 28.0 °F 76% 29.96 in 10.0 mi West 17.3 mph - N/A   Clear
12:54 PM 36.0 °F 28.0 °F 28.9 °F 76% 29.98 in 10.0 mi WNW 11.5 mph 20.7 mph N/A   Clear
1:54 PM 37.0 °F 26.2 °F 24.1 °F 59% 29.98 in 10.0 mi WNW 21.9 mph 29.9 mph N/A   Clear
2:54 PM 37.0 °F 29.3 °F 23.0 °F 57% 30.01 in 10.0 mi WNW 11.5 mph - N/A   Clear
3:54 PM 35.1 °F 26.9 °F 21.9 °F 59% 30.01 in 10.0 mi WNW 11.5 mph 23.0 mph N/A   Clear
4:54 PM 33.1 °F 24.4 °F 19.9 °F 59% 30.04 in 10.0 mi West 11.5 mph - N/A   Partly Cloudy
5:54 PM 32.0 °F 25.6 °F 19.0 °F 59% 30.06 in 10.0 mi West 6.9 mph - N/A   Clear
6:54 PM 30.9 °F 23.5 °F 19.0 °F 61% 30.06 in 10.0 mi NW 8.1 mph - N/A   Partly Cloudy
7:54 PM 30.0 °F 21.7 °F 17.1 °F 59% 30.09 in 10.0 mi NW 9.2 mph - N/A   Clear
8:54 PM 28.9 °F 19.2 °F 15.1 °F 56% 30.07 in 10.0 mi NW 11.5 mph 17.3 mph N/A   Clear
9:54 PM 27.0 °F 17.3 °F 10.9 °F 51% 30.06 in 10.0 mi NW 10.4 mph - N/A   Partly Cloudy
10:54 PM 26.1 °F 17.6 °F 9.0 °F 49% 30.05 in 10.0 mi NNW 8.1 mph - N/A   Clear
11:54 PM 26.1 °F 20.5 °F 10.0 °F 51% 30.05 in 10.0 mi NNW 4.6 mph - N/A   Clear